Find Starlink 32920

NORAD ID: 62925 Int'l Des: 2025-027 Owner: SPXS Country: US Constellation: starlink operational
LEOCIRCULAR

リアルタイム位置

3D地球を読み込み中...

Starlink 32920について

説明を読み込み中...

次回通過

Passes for default location (London). Set your location on the main map for personalized predictions.

高度履歴

Loading altitude history...

軌道要素

1 62925U 25027U 26133.36198398 .00005079 00000-0 19394-3 0 9992
2 62925 43.0022 123.5834 0001642 268.8732 91.1932 15.27584735 71439
Epoch: May 13, 2026 • Age: 29 hours

現在のステータス

高度 489.0 km
速度 7.62 km/s
衛星直下点 -26.31°S, 112.21°W
打ち上げ日 Feb 8, 2025
運用期間 1.2 years
タイプ internet

技術仕様

分類 Payload
質量 730.00 kg
乾燥質量 700.00 kg
総質量 730.00 kg
長さ 0.30 m
直径 4.10 m
スパン 29.00 m
形状 Box + pan
製造者 SPXS
バスタイプ Starlink V2M
フェーズステータス In Orbit
所有者/国 SPXS/US

Most Searched